Regional Weather Roundup
Issued by NWS

Home | Current Version | Previous Version | Graphics & Text | Print | Product List | Glossary On
Versions: 1 2 3 4 5 6 7 8 9 10 11 12 13 14 15 16 17 18 19 20 21 22 23 24 25 26 27
000
ASUS45 KCYS 182010
RWRWY

WYOMING REGIONAL WEATHER ROUNDUP
NATIONAL WEATHER SERVICE CHEYENNE WY
200 PM MDT MON SEP 18 2017

NOTE:  "FAIR" INDICATES FEW OR NO CLOUDS BELOW 12,000 FEET
WITH NO SIGNIFICANT WEATHER AND/OR OBSTRUCTIONS TO VISIBILITY.

WYZ001-182100-
YELLOWSTONE NATIONAL PARK

CITY           SKY/WX    TMP DP  RH WIND       PRES   REMARKS
LK YELLOWSTONE   N/A     54  30  40 VRB7G25   29.97F
W YELLOWSTONE  NOT AVBL

$$
WYZ002>013-054>058-071-098>099-182100-
NORTHERN WYOMING

CITY           SKY/WX    TMP DP  RH WIND       PRES   REMARKS
JACKSON        FAIR      66  30  26 S21G26    29.92F
CODY           FAIR      73  32  22 VRB3      29.77F
GREYBULL       FAIR      73  37  27 SE16G24   29.76F
WORLAND        FAIR      78  34  20 S18       29.77F
SHERIDAN       FAIR      70  38  31 SE7       29.75F
BUFFALO        FAIR      69  30  23 W7        29.81F
GILLETTE       FAIR      76  26  15 SW16G22   29.81F
HULETT         FAIR      73  34  23 SW10G18   29.84F
NEWCASTLE      FAIR      73  32  21 S13       29.87F

$$
WYZ014>020-022>026-101>103-182100-
CENTRAL WYOMING

CITY           SKY/WX    TMP DP  RH WIND       PRES   REMARKS
BIG PINEY      FAIR      67  29  24 W21G29    30.00F
PINEDALE       CLOUDY    63  30  29 SW15G21   30.01F
DUBOIS         FAIR      59  27  29 W22G33    29.94S
LANDER           N/A    N/A N/A N/A MISG      29.84F
RIVERTON       FAIR      73  29  19 S7        29.85F
CASPER         FAIR      74  33  22 SW25G31   29.89F
DOUGLAS        FAIR      78  28  16 W17G28    29.89F

$$
WYZ021-027>030-104>119-182100-
SOUTHERN WYOMING

CITY           SKY/WX    TMP DP  RH WIND       PRES   REMARKS
EVANSTON       PTSUNNY   71  30  21 SW30G41   30.01F
KEMMERER         N/A     68  27  21 SW29G41   30.02F
FORT BRIDGER   CLOUDY    72  27  18 SW21G35   30.04F
ROCK SPRINGS   PTSUNNY   67  28  23 SW14      30.00F
DIXON          FAIR      72  27  19 SW17G29   30.08F
RAWLINS        FAIR      71  28  20 SW25G35   30.03F
SARATOGA       FAIR      70  28  21 MISG      30.07F
LARAMIE        FAIR      69  24  18 SW13G25   30.06F
CHEYENNE       PTSUNNY   77  28  16 SW16      30.01F
TORRINGTON     FAIR      79  34  19 CALM      29.87F
PINE BLUFFS    FAIR      75  30  19 SW7       29.97F

$$




USA.gov is the U.S. government's official web portal to all federal, state and local government web resources and services.